CAPE
2 1 1 1 1 1 1 0 0 0 0 0 0 3 37 31 14 33 32 31 4 0 0 0 0 0 0 0 0 0 0 0
1 0 1 1 1 1 0 0 2 0 0 0 0 0 0 0 0 12 36 14 1 0 0 0 0 0 0 0 0 0 0 0
1 1 1 1 0 1 1 0 0 0 0 0 6 0 10 16 24 17 39 30 14 1 0 0 0 0 0 0 0 0 0 0
0 1 0 1 0 0 0 0 0 0 0 2 0 4 12 36 31 9 37 47 56 62 53 39 8 0 0 0 0 0 0 0
0 0 0 0 0 0 0 0 0 0 0 0 0 0 2 1 0 2 7 17 41 50 47 47 30 0 0 0 0 0 0 0
0 0 0 0 0 0 0 0 0 0 0 0 0 0 0 0 0 0 0 0 0 0 0 0 0 0 0 0 0 0 0 0
0 0 0 0 1 0 0 0 0 0 0 0 0 0 0 0 0 0 0 0 0 0 0 0 0 0 0 0 0 0 0 0
0 0 0 0 0 0 1 1 0 0 0 0 0 0 0 0 0 0 0 0 0 0 0 0 0 1 11 5 3 0 0 0
0 0 0 0 0 0 0 0 0 0 0 0 0 0 0 0 0 0 0 0 0 0 0 0 1 19 37 40 16 0 0 0
0 0 0 0 0 0 0 0 0 0 0 0 0 0 0 0 0 0 0 0 0 0 0 0 0 3 2 0 0 0 0 0
0 0 0 0 0 0 0 0 0 0 0 0 0 0 0 0 0 0 0 0 0 0 0 0 2 1 3 2 1 0 0 0
0 0 0 0 0 0 0 0 0 0 0 0 0 0 0 0 0 0 0 0 0 0 0 0 0 1 0 0 0 0 0 0
0 0 0 0 0 0 0 0 0 0 0 0 0 0 0 0 0 0 0 0 0 0 0 0 1 12 1 0 0 0 0 0
0 0 2 0 0 0 0 0 0 0 0 0 0 0 0 0 0 0 0 0 0 0 1 1 1 0 0 0 0 0 1 2
0 0 2 0 0 0 0 0 0 0 0 0 0 0 0 0 0 0 0 0 0 1 1 1 0 1 1 0 0 0 1 1
0 0 0 0 0 1 0 0 0 0 0 0 0 0 0 0 0 0 0 0 1 0 0 0 0 0 0 0 0 1 1 1
0 0 0 0 0 0 2 1 0 0 0 0 0 0 0 0 0 0 0 0 0 0 0 0 0 0 1 1 1 2 2 0
0 0 0 0 0 0 0 0 0 0 0 0 0 0 0 0 0 0 0 0 0 1 1 1 2 1 1 1 1 1 0 0
0 0 0 0 0 0 0 0 0 0 0 0 1 0 0 0 0 0 0 1 1 2 2 2 1 0 0 0 0 0 0 0
CIN
-2 -1 -0 -0 -0 -0 -0 -0 -0 -0 -0 -0 -3 -3 -34 -26 -24 -48 -94 -84 -134 -0 -0 -0 -0 -0 -0 -0 -0 -0 -0 -0
-1 -2 -0 -0 -0 -0 -0 -0 -0 -0 -0 -0 -4 -0 -0 -0 -0 -59 -54 -101 -131 -0 -0 -0 -0 -0 -0 -0 -0 -0 -0 -0
-0 -1 -0 -0 -0 -0 -0 -0 -0 -0 -0 -0 -9 -0 -44 -47 -73 -69 -80 -121 -138 -178 -0 -0 -0 -0 -0 -0 -0 -0 -0 -0
-0 -0 -0 -0 -0 -0 -0 -0 -0 -0 -0 -25 -16 -53 -62 -51 -53 -67 -67 -89 -100 -109 -115 -122 -175 -0 -0 -0 -0 -0 -0 -0
-0 -0 -0 -0 -0 -0 -0 -0 -0 -0 -0 -0 -0 -0 -6 -6 -0 -52 -70 -99 -103 -96 -79 -104 -129 -0 -0 -0 -0 -0 -0 -0
-0 -0 -0 -0 -0 -0 -0 -0 -0 -0 -0 -0 -0 -0 -0 -0 -0 -0 -0 -0 -0 -0 -0 -0 -0 -0 -0 -0 -0 -0 -0 -0
-0 -0 -0 -0 -0 -0 -0 -0 -0 -0 -0 -0 -0 -0 -0 -0 -0 -0 -0 -0 -0 -0 -0 -0 -0 -0 -0 -0 -0 -0 -0 -0
-0 -0 -0 -0 -0 -0 -0 -0 -0 -0 -0 -0 -0 -0 -0 -0 -0 -0 -0 -0 -0 -0 -0 -0 -0 -135 -180 -176 -180 -0 -0 -0
-0 -0 -0 -0 -0 -0 -0 -0 -0 -0 -0 -0 -0 -0 -0 -0 -0 -0 -0 -0 -0 -0 -0 -0 -224 -189 -171 -174 -148 -2 -0 -0
-0 -0 -0 -0 -0 -0 -0 -0 -0 -0 -0 -0 -0 -0 -0 -0 -0 -0 -0 -0 -0 -0 -0 -0 -0 -150 -147 -47 -18 -0 -0 -0
-0 -0 -0 -0 -0 -0 -0 -0 -0 -0 -0 -0 -0 -0 -0 -0 -0 -0 -0 -0 -0 -0 -0 -0 -67 -90 -217 -128 -140 -0 -0 -0
-0 -0 -0 -0 -0 -0 -0 -0 -0 -0 -0 -0 -0 -0 -0 -0 -0 -0 -0 -0 -0 -0 -0 -0 -0 -88 -0 -17 -0 -0 -0 -0
-0 -0 -0 -0 -0 -0 -0 -0 -0 -0 -0 -0 -0 -0 -0 -0 -0 -0 -0 -0 -0 -0 -0 -0 -93 -59 -0 -0 -0 -0 -0 -0
-0 -0 -359 -0 -0 -0 -0 -0 -0 -0 -0 -0 -0 -0 -0 -0 -0 -0 -0 -0 -0 -0 -0 -0 -69 -0 -0 -0 -0 -0 -0 -0
-0 -0 -142 -0 -0 -0 -0 -0 -0 -0 -0 -0 -0 -0 -0 -0 -0 -0 -0 -0 -0 -0 -0 -0 -0 -0 -0 -0 -0 -0 -0 -0
-0 -0 -0 -0 -0 -70 -0 -0 -0 -0 -0 -0 -0 -0 -0 -0 -0 -0 -0 -0 -0 -0 -0 -0 -0 -0 -0 -0 -0 -0 -0 -0
-0 -0 -0 -0 -0 -0 -413 -346 -0 -0 -0 -0 -0 -0 -0 -0 -0 -0 -0 -0 -0 -0 -0 -0 -0 -0 -0 -0 -0 -0 -0 -0
-0 -0 -0 -0 -0 -0 -0 -0 -0 -0 -0 -0 -0 -0 -0 -0 -0 -0 -0 -0 -0 -0 -0 -0 -0 -0 -0 -0 -0 -0 -0 -0
-0 -0 -0 -0 -0 -0 -0 -0 -0 -0 -0 -0 -0 -0 -0 -0 -0 -0 -0 -0 -0 -0 -0 -0 -0 -0 -0 -0 -0 -0 -0 -0
Wind_Speed
13 16 14 6 4 3 3 3 4 9 13 14 16 18 16 19 19 18 16 14 13 11 9 8 8 5 5 7 5 10 12 11
14 16 17 10 6 2 2 2 6 9 8 9 9 12 14 15 17 17 15 16 16 12 9 8 8 8 6 7 9 9 14 15
15 17 19 20 11 3 3 2 8 6 7 6 6 9 11 14 16 15 14 13 13 11 10 9 7 6 10 4 8 13 15 10
16 17 19 21 21 22 19 14 15 12 9 7 10 8 10 13 13 15 19 12 11 10 12 10 8 6 7 5 6 9 11 12
15 17 18 20 22 24 24 24 27 29 29 26 33 26 21 9 13 24 34 37 32 29 22 10 10 10 7 8 8 10 14 12
14 16 18 19 21 22 24 25 27 28 32 30 29 29 25 27 26 28 26 30 27 29 18 16 8 9 9 10 10 10 11 15
15 14 15 18 20 21 23 24 25 26 27 28 28 28 25 27 30 30 29 25 16 13 10 12 12 10 11 11 12 12 13 14
15 16 14 14 18 20 22 25 26 26 26 27 27 27 30 31 31 33 33 31 21 19 13 12 12 14 14 14 15 15 17 18
15 14 13 13 15 15 16 19 22 23 22 24 22 26 29 30 30 29 28 27 23 11 12 13 14 16 16 17 17 18 22 23
16 14 14 14 16 17 16 16 16 16 17 19 21 22 22 22 24 23 23 21 16 11 12 14 17 18 18 20 22 22 22 27
8 10 10 9 9 10 13 16 17 16 17 17 17 16 17 15 13 17 17 16 15 13 14 14 16 18 20 18 23 24 31 27
7 10 8 7 7 10 10 13 14 15 14 12 14 14 15 15 18 19 16 15 16 16 16 17 18 24 24 24 18 22 24 25
3 2 3 6 9 11 13 11 14 15 12 14 16 16 15 18 21 21 18 18 16 17 19 20 19 16 15 13 11 13 17 16
13 3 4 6 7 8 9 7 11 11 12 14 14 11 14 15 15 14 14 15 16 16 17 17 16 12 14 14 12 13 16 20
15 6 1 4 4 4 4 5 6 8 10 13 16 14 14 13 12 13 14 15 16 17 17 17 18 16 14 15 14 16 17 15
19 6 9 3 4 2 2 2 2 4 7 9 13 11 13 14 16 18 18 19 18 18 18 18 17 16 16 15 17 17 14 14
20 10 8 8 6 3 2 6 6 6 8 9 15 16 16 16 16 17 18 19 19 18 18 18 18 18 16 15 15 12 14 15
22 11 11 7 6 8 9 11 11 10 9 11 12 12 13 14 15 16 17 19 19 19 19 19 19 18 14 11 12 13 14 14
22 17 15 12 10 9 9 10 11 12 12 13 13 13 14 16 17 17 18 18 18 18 17 16 15 15 12 12 12 12 12 14
Wind_Direction
77 41 29 359 12 334 284 256 164 214 222 222 221 221 215 211 213 213 212 213 214 210 211 211 230 248 269 290 316 305 303 305
104 74 45 59 67 15 281 175 211 207 217 213 206 215 215 213 216 219 219 224 221 213 212 224 238 253 261 280 298 304 299 296
113 104 92 101 81 14 309 129 152 175 189 192 204 179 223 220 223 217 223 216 216 202 214 225 227 232 268 216 294 299 299 300
118 119 120 118 116 127 121 113 135 142 168 191 230 231 221 227 223 227 240 222 208 200 180 183 185 196 198 251 269 290 298 300
123 126 127 126 133 142 141 134 143 148 149 148 166 151 151 184 166 168 176 184 176 174 171 181 258 260 235 258 257 281 293 290
134 129 134 131 137 139 140 142 147 150 158 155 155 159 154 159 159 168 169 176 178 187 257 263 233 215 247 262 268 256 266 288
147 136 128 134 138 143 145 148 147 151 152 157 159 163 160 166 174 179 181 181 206 231 208 204 212 251 250 252 254 257 265 273
154 150 142 134 143 147 148 156 158 157 156 164 164 169 177 181 185 191 193 192 190 195 210 222 237 270 274 265 268 264 272 277
161 157 153 148 150 150 150 153 158 159 158 165 162 173 182 187 189 191 194 196 201 233 238 245 255 272 274 273 268 268 282 284
166 161 162 159 161 163 161 159 162 162 164 167 172 177 180 185 189 192 197 201 205 227 239 259 276 278 276 277 280 281 283 283
170 171 176 181 181 174 171 171 173 173 174 177 180 184 188 193 197 200 205 211 219 232 245 261 275 281 283 275 281 285 284 295
148 165 171 184 201 205 204 190 186 185 189 197 196 201 205 207 208 211 219 230 234 243 260 268 278 291 288 297 273 277 290 290
95 87 120 149 168 178 193 221 206 203 213 206 209 212 213 212 214 218 229 238 251 259 273 275 285 281 292 296 284 275 285 286
300 359 123 136 151 160 173 210 216 224 220 212 222 235 222 222 228 250 249 255 261 271 276 275 278 268 279 293 292 294 292 297
289 303 135 148 161 161 162 185 228 234 226 216 213 220 232 244 253 265 271 277 279 282 281 279 284 285 286 290 294 298 297 292
283 223 183 200 180 198 214 257 254 219 221 221 217 261 274 274 281 286 286 289 292 294 294 294 295 292 289 289 296 294 292 294
281 252 219 198 194 213 296 319 312 293 287 284 294 296 294 295 297 298 298 299 301 302 300 299 298 298 294 293 297 295 297 298
282 246 221 240 271 297 308 319 323 319 311 308 304 306 305 306 308 307 306 306 307 307 306 303 304 304 302 302 305 306 308 306
276 273 274 282 291 307 321 327 330 327 320 315 313 311 309 310 311 311 311 312 312 312 313 313 313 315 315 314 318 321 321 320